User: anonymous   Login
Location: LDNL
(36.4545°S, 141.6685°E)
Time: 12:06:44
(UTC+10:00)
Language:

Explorer 11/Cluster Stage 4 - Orbit

View from above orbital plane
View from above orbital plane
View from above satellite
View from above satellite

Ground track
Ground track

The orbit data is extracted from the following two-line orbital elements,

1 00107U 61013A   22219.31270974  .00001852  00000-0  23123-3 0  9998
2 00107  28.7871  88.6375 0541563  46.1559 318.2494 14.10211910 76480
Epoch (UTC): 07 August 2022 07:30:18
Eccentricity: 0.0541563
inclination: 28.7871°
perigee height: 467 km
apogee height: 1250 km
right ascension of ascending node: 88.6375°
argument of perigee: 46.1559°
revolutions per day: 14.10211910
mean anomaly at epoch: 318.2494°
orbit number at epoch: 7648

The dashed part of the orbit path shows where the satellite is in the earth's shadow,  

DLR